{"data":{"norad_id":68437,"intl_designator":"2026-067X","name":"AIGLONSAT-1","alt_names":[],"object_type":"PAYLOAD","status":"ACTIVE","operator":null,"country":"SWTZ","launch_date":"2026-03-30","launch_site_code":"AFWTR","launch_vehicle":null,"mission":null,"orbit_class":"UNKNOWN","rcs_meters":null,"size_class":null,"mass_kg":null,"dimensions":null,"purposes":[],"wikipedia_slug":null,"has_3d_model":false,"image_url":null,"decayed_at":null,"tle_current":{"epoch":"2026-09-19T08:00:18.867744Z","epoch_age_seconds":169947,"freshness":"FRESH","line1":"1 68437U 26067X   26262.33355171  .00011505  00000+0  50670-3 0  9997","line2":"2 68437  97.4600 219.8206 0004922  82.9640 277.2156 15.21980786 26252","mean_motion":15.21980786,"eccentricity":0.0004922,"inclination_deg":97.46,"raan_deg":219.8206,"arg_perigee_deg":82.964,"mean_anomaly_deg":277.2156,"bstar":0.0005067,"rev_number":2625,"period_min":94.61354658652,"perigee_km":496.48118327787,"apogee_km":503.25188995932,"semimajor_km":6878.0035366186,"source":"CELESTRAK","updated_at":"2026-09-20T09:00:24.204264Z"}}}